Voltar ao catálogo

ARIANE 5 R/B

AtivoHEO
NORAD 38742·ROCKET BODY·🇫🇷 France

Lançado Aug 2, 2012 de Guiana Space Centre

Loading…

Próximas Passagens (próximas 24 horas)

TLE

AtualizadoSource: Space-Track

Época: Sep 12, 2026, 18:08 UTC

1 38742U 12043C   26255.75558362  .00003884  00000-0  10558-2 0  9999
2 38742   5.8911 309.7968 7027227  59.2003 351.2789  2.60523934125195

Acompanhe ARIANE 5 R/B em tempo real com AllMySat

Download on the App Store